Weather History for Erzurum, Turkey

Change the Weather History Date:

Tuesday, October 30, 2012

  Actual Average Record
Temperature  
Mean Temperature 45 °F -  
Max Temperature 62 °F 44 °F 62 °F (1998)
Min Temperature 28 °F 27 °F 12 °F (2003)
Degree Days  
Heating Degree Days 20    
Moisture  
Dew Point 33 °F    
Average Humidity 68    
Maximum Humidity 100    
Minimum Humidity 22    
Precipitation  
Precipitation 0.00 in 0.05 in - ()
Sea Level Pressure  
Sea Level Pressure 30.13 in    
Wind  
Wind Speed 3 mph ()    
Max Wind Speed 14 mph    
Max Gust Speed -    
Visibility 6.6 miles    
Events      
Averages and records for this station are not official NWS values.
T = Trace of Precipitation, MM = Missing Value Source: Averaged Metar Reports

Daily Weather History Graph

Daily Weather History Graph

Search for Another Location

Airport:

Trip Planner

Search our weather history database for the weather conditions in past years. The results will help you decide how hot, cold, wet, or windy it might be!

Date:

Astronomy

Oct. 30, 2012 Rise Set
Actual Time 5:42 AM EET 4:15 PM EET
Civil Twilight 5:14 AM EET 4:43 PM EET
Nautical Twilight 4:42 AM EET 5:14 PM EET
Astronomical Twilight 4:10 AM EET 5:46 PM EET
Moon 4:30 PM EET (10/30) 6:08 AM EET (10/30)
Length of Visible Light 11h 28m
Length of Day
10h 32m
Full, 100% of the Moon is Illuminated
Oct 30
Full
Nov 7
Last Quarter
Nov 14
New
Nov 20
First Quarter
Nov 28
Full

Hourly Weather History & Observations

Time (EET) Temp. Windchill Dew Point Humidity Pressure Visibility Wind Dir Wind Speed Gust Speed Precip Events Conditions
12:20 AM 33.8 °F - 33.8 °F 100% 30.18 in - Calm Calm - N/A   Clear
12:50 AM 32.0 °F - 32.0 °F 100% 30.18 in - Calm Calm - N/A   Clear
1:20 AM 32.0 °F - 32.0 °F 100% 30.18 in - Calm Calm - N/A   Clear
1:50 AM 32.0 °F - 32.0 °F 100% 30.18 in - Calm Calm - N/A   Clear
2:00 AM 32 °F - 32 °F 98%  in 12 mi Calm Calm - -  
2:20 AM 30.2 °F - 30.2 °F 100% 30.18 in - Calm Calm - N/A   Clear
2:50 AM 32.0 °F - 32.0 °F 100% 30.15 in - SW 2.3 mph - N/A   Clear
3:20 AM 32.0 °F - 30.2 °F 93% 30.15 in - Variable 1.2 mph - N/A   Clear
3:50 AM 30.2 °F - 30.2 °F 100% 30.15 in - Calm Calm - N/A   Clear
4:20 AM 30.2 °F - 30.2 °F 100% 30.15 in - WNW 2.3 mph - N/A   Clear
4:50 AM 30.2 °F - 28.4 °F 93% 30.15 in - Calm Calm - N/A   Clear
5:20 AM 28.4 °F - 28.4 °F 100% 30.15 in - Calm Calm - N/A   Clear
5:50 AM 30.2 °F - 30.2 °F 100% 30.15 in 2.5 mi Variable 2.3 mph - N/A   Mist
6:20 AM 28.4 °F - 28.4 °F 100% 30.15 in - NW 2.3 mph - N/A   Clear
6:50 AM 33.8 °F - 33.8 °F 100% 30.15 in - Calm Calm - N/A   Clear
7:20 AM 37.4 °F - 35.6 °F 93% 30.15 in - Variable 1.2 mph - N/A   Clear
7:50 AM 39.2 °F - 35.6 °F 87% 30.15 in - Calm Calm - N/A   Clear
8:00 AM 41 °F - 36 °F 76%  in 12 mi Calm Calm - -  
8:20 AM 44.6 °F - 37.4 °F 76% 30.15 in - Calm Calm - N/A   Clear
8:50 AM 46.4 °F - 39.2 °F 76% 30.15 in - Variable 2.3 mph - N/A   Clear
9:20 AM 48.2 °F - 39.2 °F 71% 30.12 in - NNE 4.6 mph - N/A   Clear
9:50 AM 51.8 °F - 39.2 °F 62% 30.12 in - ENE 4.6 mph - N/A   Clear
10:20 AM 55.4 °F - 37.4 °F 51% 30.12 in - East 5.8 mph - N/A   Clear
10:50 AM 59.0 °F - 37.4 °F 45% 30.12 in - NE 4.6 mph - N/A   Clear
11:20 AM 60.8 °F - 33.8 °F 36% 30.09 in 6.2 mi Variable 2.3 mph - N/A   Partly Cloudy
11:50 AM 60.8 °F - 33.8 °F 36% 30.09 in 6.2 mi Variable 3.5 mph - N/A   Scattered Clouds
12:20 PM 60.8 °F - 32.0 °F 34% 30.09 in 6.2 mi WNW 4.6 mph - N/A   Scattered Clouds
12:50 PM 60.8 °F - 33.8 °F 36% 30.09 in 6.2 mi West 9.2 mph - N/A   Mostly Cloudy
1:20 PM 60.8 °F - 33.8 °F 36% 30.09 in 6.2 mi WSW 8.1 mph - N/A   Mostly Cloudy
1:50 PM 59.0 °F - 30.2 °F 34% 30.09 in 6.2 mi WSW 11.5 mph - N/A   Mostly Cloudy
2:00 PM 60 °F - 32 °F 22%  in 6 mi WSW 11.5 mph - -   Mostly Cloudy
2:20 PM 60.8 °F - 28.4 °F 29% 30.09 in 6.2 mi SW 5.8 mph - N/A   Mostly Cloudy
2:50 PM 60.8 °F - 28.4 °F 29% 30.06 in 6.2 mi WSW 9.2 mph - N/A   Mostly Cloudy
3:20 PM 59.0 °F - 28.4 °F 31% 30.06 in 6.2 mi SW 6.9 mph - N/A   Mostly Cloudy
3:50 PM 57.2 °F - 28.4 °F 33% 30.06 in 6.2 mi SW 6.9 mph - N/A   Mostly Cloudy
4:20 PM 53.6 °F - 32.0 °F 44% 30.09 in 6.2 mi SW 6.9 mph - N/A   Mostly Cloudy
4:50 PM 53.6 °F - 32.0 °F 44% 30.09 in 6.2 mi SW 8.1 mph - N/A   Mostly Cloudy
5:20 PM 51.8 °F - 32.0 °F 47% 30.09 in 6.2 mi WSW 8.1 mph - N/A   Mostly Cloudy
5:50 PM 50.0 °F - 33.8 °F 54% 30.09 in 6.2 mi West 10.4 mph - N/A   Mostly Cloudy
6:20 PM 51.8 °F - 33.8 °F 50% 30.12 in 6.2 mi WSW 11.5 mph - N/A   Mostly Cloudy
6:50 PM 51.8 °F - 33.8 °F 50% 30.12 in 6.2 mi WSW 13.8 mph - N/A   Mostly Cloudy
7:20 PM 51.8 °F - 33.8 °F 50% 30.12 in 6.2 mi WSW 9.2 mph - N/A   Mostly Cloudy
7:50 PM 50.0 °F - 35.6 °F 58% 30.12 in 6.2 mi SW 4.6 mph - N/A   Mostly Cloudy
8:00 PM 49 °F - 35 °F 48%  in 12 mi SW 4.6 mph - -   Partly Cloudy
8:20 PM 46.4 °F 42.9 °F 35.6 °F 66% 30.12 in 6.2 mi WSW 6.9 mph - N/A   Mostly Cloudy
8:50 PM 44.6 °F - 33.8 °F 66% 30.12 in 6.2 mi Calm Calm - N/A   Mostly Cloudy
9:20 PM 41.0 °F 39.0 °F 33.8 °F 76% 30.15 in 6.2 mi NNW 3.5 mph - N/A   Mostly Cloudy
9:50 PM 41.0 °F - 33.8 °F 76% 30.15 in 6.2 mi Calm Calm - N/A   Mostly Cloudy
10:20 PM 39.2 °F - 33.8 °F 81% 30.15 in 6.2 mi Calm Calm - N/A   Mostly Cloudy
10:50 PM 37.4 °F - 32.0 °F 81% 30.15 in 6.2 mi Calm Calm - N/A   Mostly Cloudy
11:20 PM 39.2 °F - 32.0 °F 75% 30.15 in 6.2 mi Calm Calm - N/A   Mostly Cloudy
11:50 PM 35.6 °F 31.7 °F 32.0 °F 87% 30.15 in 6.2 mi North 4.6 mph - N/A   Mostly Cloudy